Hourly Data Report for November 01, 2019

All times are specified in Local Standard Time (LST). Add 1 hour to adjust for Daylight Saving Time where and when it is observed.

HOPE A
BRITISH COLUMBIA
Current Station Operator: NAVCAN

49°22'06.000" N
121°29'53.000" W
39.00 m
1113542
71187
YHE

Download Data

Hourly Data (November 2019)
Hourly Data Report for November 1, 2019
TIME Temp Definition
°C
Dew Point Definition
°C
Rel Hum Definition
%
Wind Dir Definition
10's deg

Wind Spd Definition
km/h
Visibility Definition
km
Stn Press Definition
kPa
Hmdx Definition


Wind Chill Definition


Weather Definition


00:00 2.0 -1.3 79 9 18 16.1 102.85     LegendNANA
01:00 1.7 -1.2 81 7 9 16.1 102.88     LegendNANA
02:00 2.0 -1.4 78 7 15 16.1 102.89     LegendNANA
03:00 2.3 -1.5 76 9 15 16.1 102.92     LegendNANA
04:00 2.2 -1.4 77 7 15 16.1 102.95     LegendNANA
05:00 1.2 -1.5 82 9 15 16.1 102.97     LegendNANA
06:00 1.3 -1.3 83 8 13 16.1 102.97     LegendNANA
07:00 1.8 -1.6 78 9 17 16.1 102.96     LegendNANA
08:00 2.0 -1.4 78 8 17 16.1 103.01     LegendNANA
09:00 4.0 -0.6 72 8 15 16.1 103.01     LegendNANA
10:00 5.6 -0.6 64 10 17 16.1 102.98     LegendNANA
11:00 8.0 0.4 59 9 15 16.1 102.90     LegendNANA
12:00 9.6 0.8 54 11 17 16.1 102.76     LegendNANA
13:00 10.0 0.4 51 10 15 16.1 102.68     LegendNANA
14:00 9.0 1.0 57 13 8 16.1 102.62     LegendNANA
15:00 8.6 2.5 65   0 16.1 102.63     LegendNANA
16:00 7.4 3.7 77   0 16.1 102.60     LegendNANA
17:00 5.7 2.9 82 9 5 8.1 102.60     Haze
18:00 4.6 2.6 87 7 5 16.1 102.61     LegendNANA
19:00 4.9 2.5 84 9 13 16.1 102.61     LegendNANA
20:00 4.9 1.9 81 8 11 16.1 102.61     LegendNANA
21:00 3.9 1.6 85 8 13 16.1 102.63     LegendNANA
22:00 3.9 1.1 82 10 17 16.1 102.58     LegendNANA
23:00 2.8 1.2 89 9 15 16.1 102.60     LegendNANA

Notes on Data Quality.

Legend

  • E = Estimated
  • M = Missing
  • NA = Not Available
Date modified: